Temp
9 9 9 9 9 8 8 8 8 7 7 7 7 7 6 6 6 6 6 6 6 5 5 4 4 4 4 4 4 3 3 3 2 4 4 4 4 4 4 4 4 4 5
9 9 8 8 8 8 8 8 7 7 7 7 7 7 7 6 6 6 5 5 5 5 5 4 4 4 4 4 3 3 3 3 2 2 4 4 4 4 4 4 5 4 4
8 8 8 8 7 7 7 7 7 6 6 6 6 6 6 6 6 6 5 5 5 5 4 4 4 3 3 3 3 3 3 3 3 2 2 4 4 4 4 4 4 4 4
8 7 7 7 7 6 6 6 6 6 6 5 5 5 5 5 5 5 5 5 4 4 4 4 4 3 3 3 3 3 2 2 2 2 2 2 3 3 3 3 4 4 5
7 6 6 6 6 6 6 5 5 5 5 5 5 5 5 5 5 5 5 4 4 4 4 3 3 3 3 3 2 2 2 2 2 2 2 2 3 3 3 2 2 3 4
6 6 6 6 5 5 5 5 5 5 5 5 5 5 4 4 4 4 4 4 3 3 3 3 3 2 2 2 2 2 2 2 2 1 2 2 2 2 2 2 2 2 2
5 5 5 5 4 4 4 4 4 4 4 4 4 4 4 3 3 3 3 2 2 2 2 2 2 2 2 2 2 2 1 1 1 1 1 1 1 1 0 1 1 0 1
5 5 4 4 4 4 4 4 4 4 4 4 4 4 3 3 2 2 2 1 1 1 1 1 1 1 1 1 1 1 1 0 0 0 -0 0 -0 0 0 -0 0 -0 0
4 4 4 4 4 4 4 4 4 4 4 3 3 3 2 2 2 2 1 1 1 1 0 0 -0 0 -0 -0 -0 0 1 0 -0 -1 -0 -0 -0 -0 -0 -1 -0 -1 -0
4 4 4 4 3 3 3 3 3 3 3 3 2 2 1 1 1 1 1 1 1 1 0 0 -0 -0 -0 -0 -1 -1 -0 0 0 1 1 0 -0 -0 -0 -1 -1 -1 -2
3 3 3 3 3 3 3 3 3 2 2 2 1 1 0 0 0 0 -0 -0 -0 0 0 0 0 -0 -0 -0 -0 -1 -1 -1 -0 -1 -0 0 0 -0 -0 -1 -1 -1 -1
3 3 3 3 3 2 2 2 2 1 1 1 1 1 0 -0 -0 -0 -1 -1 -1 -1 -1 -1 -1 -1 -1 -1 -1 -1 -1 -0 -0 -0 -0 -0 -1 -0 -0 -1 -1 -1 -1
2 2 2 2 2 2 1 1 1 1 0 0 0 0 0 -0 -1 -1 -1 -1 -1 -2 -2 -1 -1 -1 -1 -1 -1 -2 -2 -2 -2 -2 -2 -2 -3 -3 -2 -2 -2 -2 -2
2 2 2 1 1 1 1 1 1 0 -0 -0 -0 -1 -1 -1 -1 -1 -2 -2 -2 -2 -2 -2 -2 -2 -2 -2 -2 -2 -3 -3 -4 -4 -4 -5 -6 -6 -6 -5 -3 -2 -3
2 1 1 1 1 1 1 0 0 -0 -1 -0 -1 -1 -1 -1 -1 -2 -2 -2 -2 -2 -2 -2 -2 -2 -2 -2 -2 -3 -3 -4 -5 -6 -7 -7 -7 -7 -7 -6 -5 -4 -3
1 1 1 1 1 0 0 -0 -0 -0 -1 -1 -1 -2 -1 -2 -2 -2 -3 -3 -3 -3 -3 -3 -3 -3 -3 -3 -4 -4 -4 -4 -5 -6 -7 -7 -7 -7 -7 -7 -6 -6 -5
1 0 1 0 -0 -0 -0 -0 0 -0 -1 -1 -1 -2 -2 -2 -3 -3 -3 -3 -3 -4 -4 -4 -4 -4 -4 -4 -5 -5 -5 -5 -6 -6 -7 -7 -7 -7 -7 -7 -7 -7 -6
-0 -0 -0 -0 -0 -1 -1 -1 -1 -1 -0 -0 -1 -2 -2 -3 -3 -3 -4 -4 -4 -4 -4 -5 -5 -6 -6 -6 -6 -6 -6 -6 -7 -7 -7 -7 -7 -7 -7 -7 -7 -7 -6
-0 -0 -1 -1 -1 -1 -1 -1 -1 -1 -2 -2 -2 -2 -3 -3 -3 -3 -3 -4 -4 -4 -5 -7 -8 -8 -8 -7 -7 -7 -7 -7 -7 -7 -7 -7 -7 -7 -7 -7 -7 -7 -7
-1 -1 -1 -1 -1 -1 -1 -1 -2 -2 -2 -3 -3 -3 -3 -4 -4 -4 -4 -4 -5 -5 -7 -8 -9 -9 -9 -9 -9 -8 -8 -8 -8 -8 -8 -8 -7 -7 -8 -7 -7 -7 -7
-1 -1 -1 -1 -1 -2 -2 -2 -2 -3 -3 -3 -3 -4 -4 -5 -5 -5 -5 -5 -6 -7 -8 -9 -9 -9 -9 -9 -9 -9 -9 -9 -9 -9 -8 -8 -8 -8 -8 -7 -7 -7 -7
-1 -1 -2 -2 -2 -2 -2 -3 -3 -3 -3 -4 -4 -4 -5 -5 -5 -5 -6 -6 -7 -8 -9 -9 -9 -9 -9 -10 -10 -9 -9 -9 -9 -9 -9 -8 -8 -8 -8 -7 -8 -8 -7
-1 -2 -2 -2 -3 -3 -3 -3 -3 -4 -4 -4 -5 -5 -5 -5 -6 -6 -7 -7 -8 -8 -8 -9 -9 -10 -10 -10 -10 -10 -9 -9 -9 -9 -9 -8 -8 -8 -8 -8 -8 -8 -7
-2 -2 -2 -3 -3 -3 -4 -4 -4 -4 -5 -5 -5 -6 -7 -8 -7 -7 -8 -8 -8 -8 -9 -9 -10 -10 -10 -10 -9 -10 -10 -10 -10 -9 -9 -8 -8 -9 -8 -8 -8 -8 -8
-2 -2 -3 -3 -3 -4 -4 -4 -5 -5 -6 -7 -9 -9 -9 -9 -8 -8 -8 -9 -9 -9 -10 -10 -10 -10 -9 -9 -9 -9 -9 -9 -9 -9 -10 -10 -10 -9 -9 -8 -8 -8 -8
-3 -3 -3 -4 -4 -4 -5 -5 -5 -6 -7 -8 -9 -9 -9 -8 -8 -8 -9 -9 -10 -10 -10 -10 -10 -10 -9 -9 -9 -9 -9 -9 -9 -9 -10 -10 -10 -9 -9 -9 -8 -8 -8
Height
1521 1522 1522 1522 1523 1522 1522 1521 1520 1519 1518 1517 1516 1515 1514 1513 1511 1510 1510 1509 1509 1507 1507 1507 1506 1505 1504 1504 1503 1503 1502 1500 1496 1493 1493 1493 1490 1489 1488 1487 1485 1482 1480
1517 1518 1519 1519 1520 1519 1519 1519 1518 1518 1516 1515 1514 1513 1512 1511 1509 1507 1507 1506 1506 1505 1503 1502 1502 1501 1500 1500 1499 1498 1497 1497 1493 1490 1489 1488 1487 1486 1484 1482 1481 1479 1476
1515 1516 1517 1517 1517 1518 1518 1517 1516 1516 1514 1514 1513 1511 1510 1510 1506 1505 1504 1503 1502 1501 1500 1499 1498 1497 1496 1495 1494 1493 1492 1491 1489 1486 1485 1484 1481 1481 1479 1478 1476 1474 1473
1512 1513 1514 1515 1516 1516 1516 1516 1515 1516 1514 1513 1512 1511 1508 1508 1505 1504 1502 1501 1500 1499 1497 1495 1494 1492 1491 1491 1490 1488 1487 1486 1485 1483 1480 1479 1478 1476 1474 1472 1470 1469 1467
1509 1511 1512 1513 1514 1514 1514 1515 1514 1515 1513 1512 1511 1509 1507 1505 1504 1502 1500 1498 1497 1496 1494 1493 1491 1489 1487 1486 1485 1483 1482 1480 1479 1478 1476 1474 1472 1472 1470 1467 1464 1463 1461
1506 1507 1509 1510 1511 1512 1512 1513 1512 1513 1511 1510 1509 1506 1505 1503 1501 1500 1498 1496 1495 1493 1492 1490 1488 1486 1484 1482 1481 1479 1477 1475 1473 1472 1470 1468 1467 1467 1466 1463 1460 1458 1456
1503 1506 1508 1508 1510 1511 1511 1511 1510 1510 1509 1507 1506 1504 1502 1500 1499 1498 1496 1495 1493 1491 1489 1487 1485 1483 1481 1479 1476 1475 1473 1471 1469 1467 1465 1464 1462 1461 1460 1458 1457 1454 1452
1500 1502 1504 1506 1507 1508 1508 1508 1508 1507 1506 1504 1503 1501 1499 1498 1496 1495 1493 1492 1490 1488 1487 1484 1482 1480 1478 1476 1474 1471 1470 1468 1465 1463 1461 1459 1457 1456 1454 1453 1450 1449 1447
1497 1499 1500 1502 1504 1505 1505 1505 1505 1504 1503 1501 1499 1497 1496 1494 1493 1491 1490 1489 1488 1485 1484 1482 1479 1477 1474 1472 1471 1469 1466 1465 1463 1459 1457 1454 1453 1451 1450 1447 1445 1443 1439
1492 1495 1496 1498 1499 1500 1501 1501 1501 1500 1499 1498 1496 1494 1493 1492 1490 1488 1486 1485 1484 1482 1480 1479 1476 1473 1471 1467 1465 1462 1460 1459 1456 1454 1453 1451 1449 1446 1445 1442 1441 1438 1436
1488 1490 1492 1494 1495 1496 1497 1497 1496 1496 1495 1494 1493 1491 1490 1488 1487 1485 1483 1482 1480 1478 1476 1474 1472 1470 1468 1464 1461 1458 1455 1452 1449 1447 1445 1444 1442 1440 1439 1437 1435 1433 1431
1483 1486 1488 1489 1491 1492 1492 1492 1492 1492 1491 1490 1490 1489 1487 1485 1483 1482 1480 1479 1477 1475 1473 1470 1467 1464 1462 1460 1457 1453 1450 1446 1442 1440 1437 1436 1435 1432 1431 1429 1428 1426 1424
1480 1482 1484 1486 1486 1487 1487 1487 1487 1487 1487 1486 1485 1484 1483 1481 1479 1477 1476 1475 1473 1470 1468 1465 1463 1460 1457 1454 1451 1448 1444 1441 1437 1434 1431 1427 1427 1426 1422 1421 1420 1419 1417
1477 1479 1481 1482 1482 1482 1483 1483 1483 1482 1482 1481 1480 1479 1477 1476 1475 1473 1471 1469 1467 1465 1462 1459 1456 1453 1451 1447 1444 1442 1439 1436 1432 1429 1425 1421 1419 1418 1417 1416 1413 1412 1410
1472 1474 1476 1477 1477 1478 1478 1478 1477 1477 1476 1475 1474 1473 1471 1469 1469 1467 1465 1463 1460 1457 1453 1451 1449 1446 1443 1440 1437 1435 1433 1430 1427 1423 1419 1417 1414 1411 1410 1409 1407 1406 1403
1468 1470 1471 1472 1472 1472 1472 1472 1472 1471 1470 1470 1469 1467 1466 1463 1462 1461 1459 1457 1455 1452 1447 1445 1442 1439 1434 1431 1429 1426 1425 1422 1420 1418 1413 1411 1409 1406 1404 1403 1401 1398 1396
1464 1467 1467 1467 1467 1467 1467 1466 1465 1466 1464 1464 1463 1462 1460 1458 1456 1454 1452 1449 1447 1446 1442 1438 1434 1430 1426 1424 1420 1418 1415 1414 1412 1410 1408 1405 1403 1399 1398 1396 1394 1391 1389
1461 1461 1462 1462 1461 1461 1461 1461 1460 1458 1456 1455 1456 1455 1454 1452 1449 1446 1444 1441 1439 1437 1432 1428 1425 1422 1418 1416 1413 1410 1407 1405 1403 1402 1400 1398 1395 1393 1390 1388 1386 1384 1382
1455 1455 1456 1456 1455 1455 1454 1454 1454 1451 1449 1447 1446 1448 1449 1447 1442 1440 1438 1434 1430 1426 1422 1418 1416 1413 1410 1407 1404 1402 1399 1396 1394 1392 1391 1389 1388 1385 1382 1380 1378 1377 1376
1448 1449 1450 1451 1449 1448 1448 1446 1446 1444 1442 1440 1438 1438 1438 1437 1433 1431 1429 1426 1421 1417 1414 1411 1408 1405 1402 1399 1396 1393 1390 1388 1386 1385 1383 1381 1379 1378 1375 1373 1371 1369 1368
1442 1442 1443 1443 1441 1441 1441 1439 1438 1436 1435 1433 1431 1430 1429 1426 1422 1420 1418 1416 1413 1409 1407 1403 1400 1396 1393 1390 1388 1385 1383 1380 1379 1377 1375 1372 1371 1368 1366 1364 1363 1361 1360
1435 1435 1435 1435 1434 1433 1433 1432 1430 1428 1426 1425 1422 1420 1419 1417 1414 1411 1408 1405 1403 1400 1398 1394 1391 1388 1385 1381 1379 1376 1375 1373 1371 1368 1365 1363 1361 1359 1357 1356 1354 1353 1352
1428 1428 1427 1426 1426 1424 1425 1423 1421 1420 1418 1416 1413 1410 1409 1406 1404 1401 1398 1395 1393 1391 1389 1386 1382 1378 1375 1373 1371 1369 1366 1363 1360 1358 1354 1352 1351 1349 1348 1346 1346 1345 1344
1420 1419 1418 1418 1417 1417 1416 1414 1413 1411 1409 1406 1404 1401 1398 1396 1394 1391 1389 1387 1385 1383 1379 1376 1372 1369 1366 1364 1361 1358 1355 1352 1349 1346 1345 1342 1340 1339 1338 1337 1336 1336 1336
1411 1410 1409 1409 1409 1408 1407 1405 1404 1402 1400 1397 1395 1393 1391 1389 1386 1384 1381 1379 1377 1373 1369 1366 1363 1361 1358 1354 1350 1347 1344 1340 1337 1334 1331 1329 1328 1327 1327 1327 1327 1327 1327
1403 1402 1401 1400 1399 1399 1398 1396 1395 1393 1391 1389 1387 1385 1383 1380 1378 1376 1374 1371 1368 1364 1361 1358 1355 1352 1348 1344 1341 1338 1334 1331 1327 1324 1322 1320 1319 1318 1318 1318 1318 1318 1318
Wind_Speed
10 10 11 10 10 9 10 10 10 10 10 10 10 11 11 11 12 13 14 14 14 14 14 15 15 15 14 14 15 16 17 18 24 27 24 20 20 19 17 17 17 17 16
11 10 8 8 8 7 7 7 8 8 9 10 10 10 11 11 11 12 12 13 14 15 14 16 16 16 17 16 17 17 18 18 23 27 27 25 22 20 21 21 17 16 18
10 9 8 7 6 5 4 4 5 6 7 8 9 9 10 11 11 12 13 13 14 14 15 16 16 17 18 17 19 19 19 19 21 25 26 26 27 23 22 20 20 20 19
10 8 7 6 4 3 2 3 4 6 7 9 10 11 12 12 13 13 13 14 14 14 15 15 16 16 18 18 19 19 20 21 21 24 26 26 26 25 25 24 24 20 20
10 9 7 6 5 3 1 2 4 6 8 9 10 12 13 13 14 14 14 14 14 14 14 15 16 17 18 19 20 21 21 22 23 25 27 28 27 25 24 25 26 23 22
11 10 9 7 6 3 2 2 4 6 8 10 12 13 13 14 14 15 15 15 15 16 15 14 15 16 16 18 19 21 22 23 23 24 25 27 28 25 24 24 26 25 25
12 11 9 7 6 4 4 3 4 7 9 11 13 14 14 15 15 15 15 15 15 15 14 14 14 14 16 16 15 16 17 18 19 22 24 26 26 25 24 26 26 27 27
14 12 10 9 7 6 5 5 7 9 11 12 13 13 13 14 14 15 15 15 15 15 15 15 15 16 16 17 17 17 16 15 15 16 19 23 24 24 24 24 26 28 29
15 13 12 10 9 8 7 7 9 10 11 12 13 13 14 14 14 15 16 16 16 15 15 16 17 17 17 19 20 22 22 18 15 15 17 19 21 22 22 23 26 26 29
16 14 13 11 10 9 8 9 10 11 12 12 12 13 14 14 15 15 15 16 16 16 15 16 17 19 20 21 23 24 26 25 27 25 19 17 18 20 21 23 24 26 26
17 15 14 12 10 9 10 11 11 12 12 12 12 12 13 14 14 15 15 16 17 18 19 19 19 20 21 22 23 24 24 26 27 28 29 26 22 22 20 20 21 25 27
17 16 14 12 11 11 11 11 12 13 13 14 14 13 14 14 15 14 15 16 18 19 21 21 22 23 24 24 24 25 26 26 26 27 28 28 27 27 22 21 19 20 23
17 15 14 13 12 11 12 12 13 14 14 15 16 16 16 15 15 16 16 17 19 21 23 23 23 24 25 26 26 27 28 27 27 27 28 26 26 26 26 23 22 21 21
17 15 14 13 13 12 12 13 14 14 15 16 17 17 18 18 18 19 21 22 24 25 26 26 26 26 26 26 27 27 27 26 24 25 28 25 23 23 25 22 22 22 21
16 15 14 14 13 13 13 13 14 13 15 16 17 19 21 22 20 21 22 25 26 28 30 31 30 29 30 29 27 27 26 27 26 26 24 23 23 24 24 23 24 23 22
16 14 15 15 15 14 14 14 14 14 15 17 18 20 21 22 22 23 24 24 26 27 29 31 32 31 32 32 31 31 29 28 27 25 26 24 25 26 27 26 24 25 27
14 16 19 16 15 15 15 16 18 16 17 17 18 19 20 22 22 23 25 26 28 28 30 32 33 33 33 32 32 32 32 30 27 25 23 26 27 26 26 27 26 26 27
17 17 16 15 15 16 16 18 20 21 23 24 20 21 21 22 25 26 27 30 33 33 34 32 32 32 32 32 32 32 32 31 28 25 25 25 25 26 28 28 29 27 26
18 16 16 17 17 18 18 20 22 23 25 27 28 26 22 25 28 30 31 33 36 38 36 30 29 30 30 30 30 30 30 30 29 28 28 28 26 26 26 26 25 25 24
19 17 18 20 19 20 21 23 24 25 27 29 31 30 28 28 30 32 33 35 36 35 33 32 30 29 30 30 31 30 30 29 27 28 28 28 27 26 27 26 25 27 26
19 20 21 23 23 22 23 24 24 26 28 30 31 31 29 31 34 35 36 35 32 29 29 28 30 31 31 33 33 31 28 27 29 30 30 29 29 31 28 26 27 27 26
21 22 23 24 23 23 23 23 24 25 27 30 32 32 31 32 34 36 35 32 27 26 29 30 32 34 37 34 31 26 26 29 30 30 32 33 33 31 31 32 27 25 25
23 25 25 25 25 24 24 24 25 28 30 33 34 35 36 36 34 31 29 26 23 26 28 31 36 38 30 27 25 26 30 33 37 39 32 32 33 32 32 31 30 26 26
26 27 27 27 26 26 26 27 29 31 33 34 35 34 32 30 28 26 25 24 25 27 34 38 32 27 26 28 31 33 36 40 35 31 33 35 37 38 39 37 28 29 28
26 27 27 28 27 27 28 30 33 34 33 33 28 25 27 29 27 24 25 28 31 33 34 31 25 28 31 33 31 29 29 29 30 31 32 33 35 32 28 28 27 29 28
24 25 26 27 28 29 31 33 34 32 30 28 27 27 27 27 24 25 28 29 29 30 29 29 29 33 32 28 26 26 27 27 27 26 26 26 27 29 30 32 30 27 26
Wind_Direction
235 252 261 270 280 288 294 299 304 308 312 314 317 318 317 311 306 303 301 298 296 292 292 292 294 294 293 289 285 281 277 274 276 287 290 298 300 301 301 300 306 309 313
236 244 253 262 271 282 294 304 313 323 331 335 337 336 331 325 321 316 310 305 303 299 295 290 293 290 290 289 287 283 280 280 281 286 293 296 296 298 300 300 300 300 304
232 240 247 257 271 286 300 316 331 340 348 349 350 351 345 338 338 330 323 319 313 308 303 298 296 291 290 289 286 284 283 281 280 284 290 296 301 303 300 297 298 297 298
228 231 235 241 247 256 287 335 353 353 2 360 359 358 356 351 348 341 335 329 322 315 309 303 298 292 290 289 287 288 287 285 284 283 287 291 295 301 302 305 301 299 295
222 223 225 227 228 234 282 326 350 350 355 355 355 352 350 346 342 338 337 334 329 324 318 310 303 298 294 293 291 290 288 287 288 288 288 290 291 295 298 302 302 303 300
219 217 213 212 216 225 254 305 335 340 344 341 338 338 337 335 335 334 334 335 334 332 330 325 318 311 305 299 295 293 293 293 292 289 289 290 293 297 297 295 295 298 300
214 213 213 215 224 238 258 288 317 324 327 327 328 330 330 330 329 327 328 329 331 332 333 333 332 327 322 317 311 306 301 296 293 293 292 292 294 295 294 291 292 291 291
212 212 214 219 227 238 257 285 304 314 321 326 329 329 330 329 326 324 323 323 325 326 327 328 329 331 332 330 327 322 316 313 304 294 291 293 292 292 288 287 286 287 289
212 213 215 220 229 244 263 283 299 310 315 318 323 329 330 330 329 327 325 323 319 317 317 317 318 319 320 319 317 315 312 311 306 303 301 297 294 292 290 284 281 284 287
214 215 219 224 233 246 266 283 294 302 310 317 322 323 322 323 324 323 322 321 320 320 319 316 312 310 309 308 307 309 310 309 307 306 299 295 300 299 292 284 284 280 281
211 216 222 229 240 255 269 281 292 301 307 309 310 315 317 318 318 319 322 322 321 322 321 321 319 317 315 313 311 309 307 304 300 297 295 294 293 296 295 290 280 275 276
213 218 225 233 244 256 270 283 291 297 301 305 307 309 313 316 317 318 319 323 323 323 322 321 321 320 319 316 312 309 308 307 304 300 297 293 288 286 285 286 284 277 275
214 220 227 236 248 261 272 280 288 294 299 302 304 308 310 311 312 315 317 318 319 319 319 318 318 316 314 314 314 313 311 310 308 306 304 301 296 294 292 286 286 286 278
217 223 233 245 255 263 272 281 287 291 295 298 300 304 306 308 310 308 310 312 314 315 315 314 315 314 312 310 309 309 310 310 308 303 303 302 304 303 296 298 296 286 283
219 228 240 250 259 269 275 278 282 287 291 296 301 302 305 304 307 302 305 308 311 314 313 312 313 313 311 309 305 303 303 305 309 314 305 303 304 306 304 299 294 290 284
226 241 253 261 265 268 272 274 281 287 288 292 296 299 300 300 301 300 301 304 306 309 305 305 306 307 307 308 307 305 303 302 301 306 312 303 301 302 302 302 297 290 287
239 252 254 260 264 271 276 282 288 285 287 290 294 295 296 300 298 298 302 305 305 304 299 300 300 300 300 300 301 301 300 300 298 294 294 297 297 298 298 295 292 289 282
250 251 257 263 268 273 279 284 288 292 295 298 299 296 296 296 297 300 306 306 307 306 303 299 295 294 294 296 296 297 297 297 295 293 292 293 292 294 294 292 288 289 285
254 257 262 266 270 276 281 285 287 290 294 296 298 294 294 291 291 296 300 303 306 307 307 303 299 299 297 296 296 295 294 293 293 295 295 293 293 295 294 294 288 287 287
255 260 264 270 275 278 282 285 287 291 293 294 294 296 298 295 293 295 299 302 304 306 306 300 299 300 299 299 300 298 294 292 291 291 290 291 294 297 292 293 286 283 290
259 265 270 273 278 283 283 285 288 290 291 293 293 296 296 295 297 299 300 300 298 301 302 298 300 300 301 303 300 297 294 291 292 291 292 284 290 294 288 293 287 281 281
268 270 271 274 277 278 282 284 289 293 295 296 297 295 293 292 293 295 296 296 295 300 299 302 301 301 302 298 297 293 289 286 285 291 290 286 281 290 287 286 284 283 280
270 273 275 276 278 281 284 289 293 297 298 298 297 294 293 291 293 294 296 298 299 298 300 299 296 297 297 298 295 290 290 290 293 295 289 282 286 279 266 282 286 282 281
272 275 276 277 278 280 283 288 294 298 298 295 292 292 294 297 303 301 300 301 300 296 297 301 301 297 299 299 299 297 291 287 290 285 281 272 273 278 278 279 271 273 277
275 277 277 276 276 278 284 290 294 295 294 293 291 283 285 292 299 302 303 305 300 299 300 306 301 302 305 305 300 297 297 296 292 289 284 280 277 278 272 266 269 278 273
278 279 278 277 278 281 285 288 291 293 293 295 287 287 293 296 301 305 306 304 302 303 301 301 301 306 306 303 302 303 303 302 300 295 286 280 277 271 269 272 274 271 271